Simultaneous Nadir Overpasses (SNOs) Predictions

Prediction of SNOs between LANDSAT-8 and METOP-B Satellite Orbit:

Table of predicted SNOs for the next 14.0 days since TLE Epoch: 10/19/2019
Index Date (LANDSAT-8) Time (LANDSAT-8) Lat,Lon (LANDSAT-8) SZA (LANDSAT-8 ) Date (METOP-B) Time (METOP-B) Lat,Lon (METOP-B) SZA (METOP-B ) Distance(km) Time Diff (sec)
1 10/19/2019 06:54:45 81.10, 115.93 93.35 10/19/2019 06:53:56 81.10, 116.02 93.33 1.51 49
2 10/19/2019 07:44:11 -81.12, -76.13 86.60 10/19/2019 07:44:36 -81.11, -76.16 86.60 0.72 25
3 10/22/2019 02:29:00 81.08,-177.85 94.33 10/22/2019 02:28:20 81.09,-177.86 94.31 0.38 40
4 10/22/2019 03:18:26 -81.10, -9.89 85.62 10/22/2019 03:19:00 -81.10, -10.03 85.62 2.37 34
5 10/24/2019 22:03:15 81.09,-111.29 95.34 10/24/2019 22:02:44 81.09,-111.37 95.31 1.48 31
6 10/24/2019 22:52:41 -81.11, 56.69 84.60 10/24/2019 22:53:23 -81.12, 56.85 84.56 2.84 42
7 10/27/2019 17:37:30 81.10, -44.75 96.32 10/27/2019 17:37:08 81.09, -44.88 96.29 2.34 22
8 10/27/2019 18:26:56 -81.12, 123.24 83.62 10/27/2019 18:27:47 -81.12, 123.35 83.59 1.82 51
9 10/30/2019 13:11:44 81.10, 21.76 97.26 10/30/2019 13:11:31 81.09, 21.60 97.24 2.81 13




NCC Satellite Simultaneous Nadir Overpasses (SNOs) Prediction Service
